Regional Weather Roundup
Issued by NWS

Home | Current Version | Previous Version | Text Only | Print | Product List | Glossary On
Versions: 1 2 3 4 5 6 7 8 9 10 11 12 13 14 15 16 17 18 19 20 21 22 23 24 25 26 27 28 29 30 31 32 33 34 35 36 37 38 39 40 41 42 43 44 45 46 47 48 49 50
103
ASUS44 KJAN 272010
RWRMS

MISSISSIPPI HOURLY WEATHER ROUNDUP
NATIONAL WEATHER SERVICE JACKSON MS
300 PM CDT FRI MAR 27 2015

NOTE: "FAIR: INDICATES FEW OR NO CLOUDS BELOW 12,000 FEET WITH NO
SIGNIFICANT WEATHER AND/OR OBSTRUCTIONS TO VISIBILITY.

MSZ001>002-007>008-010>013-018>021-025>028-034>036-272100-
NORTHWEST MISSISSIPPI

CITY           SKY/WX    TMP DP  RH WIND       PRES   REMARKS
CLARKSDALE     FAIR      46  41  81 W15       30.13F
CLEVELAND      CLOUDY    53  39  59 N15G21    30.10S
GREENWOOD      PTSUNNY   57  33  40 NW15G23   30.09S
GREENVILLE     PTSUNNY   58  35  42 N12       30.09F
OLIVE BRANCH   PTSUNNY   45  45 100 NW9       30.09F
OXFORD         PTSUNNY   48  34  57 NW15      30.09S
TUNICA         LGT RAIN  46  39  76 NW8       30.13R
$$

MSZ003>006-009-014>017-022>024-029>033-037>039-272100-
NORTHEAST MISSISSIPPI

CITY           SKY/WX    TMP DP  RH WIND       PRES   REMARKS
COLUMBUS AFB   PTSUNNY   53  31  42 NW20      30.03S
CORINTH        CLOUDY    52  34  50 NW12      30.03F
STARKVILLE     CLOUDY    52  34  50 NW5       30.05F
TUPELO         CLOUDY    51  32  48 N14       30.05F
$$

MSZ040-058-272100-
CENTRAL MISSISSIPPI

CITY           SKY/WX    TMP DP  RH WIND       PRES   REMARKS
JACKSON INTL   MOSUNNY   63  33  32 N20       30.04F
JACKSON HAWKNS SUNNY     60  32  34 NW9G22    30.06S
MERIDIAN KEY   CLOUDY    59  29  31 NW17G29   30.01S
MERIDIAN NAS   PTSUNNY   59  30  33 NW16      30.01R
RAYMOND        FAIR      63  57  82 N9G17     30.05F
VICKSBURG      PTSUNNY   61  39  44 N8        30.07F
$$

MSZ059>079-272100-
SOUTH MISSISSIPPI

CITY           SKY/WX    TMP DP  RH WIND       PRES   REMARKS
BROOKHAVEN     FAIR      64  39  39 NW12G20   30.04F
HATTIESBURG    SUNNY     65  34  31 N14G20    30.02F
MCCOMB         SUNNY     66  34  30 NW16      30.02F
NATCHEZ        SUNNY     64  39  39 W7        30.05F
PINE BELT      SUNNY     66 N/A N/A NW13      30.02F
$$

MSZ080>082-272100-
COASTAL MISSISSIPPI

CITY           SKY/WX    TMP DP  RH WIND       PRES   REMARKS
BAY ST LOUIS   SUNNY     68  21  17 NW9       30.01S
BILOXI         SUNNY     69  32  25 N16       29.98F
PASCAGOULA     SUNNY     68  32  26 N7G18     29.97F
GULFPORT       SUNNY     69  31  24 NW8       29.99S
$$



USA.gov is the U.S. government's official web portal to all federal, state and local government web resources and services.